CW0156 Weather Reports


time (UTC)temp
C
wind
direction
speed
KPH
gust
KPH
rain 1hr
cm
rain 24hr
cm
rain mn
cm
humidity
%
barometer
mb
20260510060008 10 247 0.0 4.8 0.00 0.41 0.00 72 1008.6
20260510054516 10 250 0.0 3.2 0.00 0.41 0.00 73 1008.4
20260510053034 10 250 0.0 3.2 0.00 0.41 0.00 74 1008.2
20260510051504 10 249 0.0 3.2 0.00 0.41 0.00 77 1008.2
20260510050006 10 250 0.0 1.6 0.00 0.41 0.00 77 1008.1
20260510044524 10 252 0.0 3.2 0.00 0.41 0.00 76 1007.8
20260510043017 11 201 0.0 4.8 0.00 0.41 0.00 77 1007.6
20260510041522 11 205 1.6 4.8 0.00 0.41 0.00 82 1007.4
20260510040037 11 227 1.6 3.2 0.00 0.41 0.00 93 1007.2
20260510034508 10 227 0.0 1.6 0.00 0.41 0.41 92 1006.2
20260510033016 11 227 0.0 3.2 0.00 0.41 0.41 90 1006.1
20260510031516 12 179 0.0 3.2 0.00 0.41 0.41 89 1006.0
20260510030020 11 179 0.0 3.2 0.00 0.41 0.41 90 1005.7
20260510024523 12 179 0.0 4.8 0.00 0.41 0.41 90 1005.6
20260510023011 12 179 1.6 6.4 0.00 0.41 0.41 89 1005.5
20260510021517 12 182 1.6 6.4 0.00 0.41 0.41 89 1005.3
20260510020021 12 185 1.6 4.8 0.00 0.41 0.41 89 1005.1
20260510014504 12 181 3.2 8.0 0.00 0.41 0.41 89 1004.9
20260510013009 12 171 1.6 8.0 0.00 0.41 0.41 88 1004.7
20260510011517 12 184 3.2 9.7 0.00 0.41 0.41 87 1004.5
20260510010022 12 169 3.2 8.0 0.00 0.41 0.41 87 1004.1
20260510004522 13 175 3.2 11.3 0.00 0.41 0.41 86 1004.0
20260510003004 13 184 3.2 12.9 0.00 0.41 0.41 86 1003.7
20260510001509 13 186 4.8 12.9 0.00 0.41 0.41 85 1003.2
20260510000018 13 177 4.8 14.5 0.00 0.41 0.41 85 1002.7
20260509234530 13 186 4.8 16.1 0.00 0.41 0.41 85 1002.7
20260509233023 12 166 6.4 17.7 0.13 0.41 0.41 85 1002.3
20260509231504 12 170 6.4 16.1 0.23 0.41 0.41 86 1002.3
20260509230017 12 193 6.4 12.9 0.36 0.41 0.41 89 1002.3
20260509224515 11 192 6.4 16.1 0.41 0.41 0.41 90 1002.4
20260509223021 11 191 4.8 12.9 0.28 0.28 0.28 90 1003.7
20260509221523 12 207 1.6 8.0 0.18 0.18 0.18 87 1004.4
20260509220010 16 279 1.6 6.4 0.05 0.05 0.05 84 1003.7
20260509214512 16 190 0.0 6.4 0.00 0.00 0.00 79 1002.4
20260509213016 16 176 0.0 4.8 0.00 0.00 0.00 76 1002.0
20260509211519 17 184 1.6 6.4 0.00 0.00 0.00 76 1001.8
20260509210026 17 174 4.8 14.5 0.00 0.00 0.00 75 1001.6
20260509204510 17 182 1.6 12.9 0.00 0.00 0.00 75 1001.7
20260509203017 16 178 3.2 11.3 0.00 0.00 0.00 75 1001.9
20260509201517 16 196 3.2 14.5 0.00 0.00 0.00 75 1002.0
20260509200024 16 213 3.2 11.3 0.00 0.00 0.00 76 1002.3
20260509194527 16 192 4.8 16.1 0.00 0.00 0.00 75 1002.9
20260509193012 17 180 6.4 17.7 0.00 0.00 0.00 73 1002.8
20260509191519 17 199 8.0 16.1 0.00 0.00 0.00 71 1002.5
20260509190022 17 209 4.8 16.1 0.00 0.00 0.00 71 1002.6
20260509184538 17 196 4.8 16.1 0.00 0.00 0.00 71 1002.9
20260509183028 17 191 4.8 12.9 0.00 0.00 0.00 70 1003.2
20260509181514 17 192 4.8 11.3 0.00 0.00 0.00 73 1003.3
20260509180019 16 189 3.2 9.7 0.00 0.00 0.00 73 1003.5
20260509174523 17 172 4.8 16.1 0.00 0.00 0.00 71 1003.6
20260509173023 17 175 3.2 9.7 0.00 0.00 0.00 72 1003.9
20260509171537 17 200 3.2 17.7 0.00 0.00 0.00 71 1004.3
20260509170016 17 186 4.8 11.3 0.00 0.00 0.00 72 1004.4
20260509164521 17 190 4.8 12.9 0.00 0.00 0.00 70 1004.3
20260509163022 17 198 6.4 11.3 0.00 0.00 0.00 70 1004.4
20260509161530 17 180 4.8 16.1 0.00 0.00 0.00 71 1004.4
20260509160028 17 190 3.2 12.9 0.00 0.00 0.00 72 1004.7
20260509154517 17 191 4.8 12.9 0.00 0.00 0.00 71 1005.1
20260509153024 16 200 4.8 11.3 0.00 0.00 0.00 73 1005.3
20260509151525 16 224 4.8 9.7 0.00 0.00 0.00 74 1005.2
20260509150027 16 184 4.8 11.3 0.00 0.00 0.00 76 1005.1
20260509144542 15 228 1.6 8.0 0.00 0.00 0.00 81 1005.2
20260509143025 15 203 1.6 9.7 0.00 0.00 0.00 82 1005.4
20260509141534 15 186 1.6 8.0 0.00 0.00 0.00 83 1005.5
20260509140027 14 165 4.8 14.5 0.00 0.00 0.00 84 1005.6
20260509134526 13 179 3.2 9.7 0.00 0.00 0.00 86 1005.8
20260509133028 13 190 0.0 9.7 0.00 0.00 0.00 89 1005.8
20260509131524 12 207 1.6 8.0 0.00 0.00 0.00 89 1006.1
20260509130026 12 194 0.0 4.8 0.00 0.00 0.00 90 1006.2
20260509124527 12 175 1.6 4.8 0.00 0.00 0.00 90 1006.1
20260509123030 11 178 0.0 4.8 0.00 0.00 0.00 91 1006.0
20260509121532 11 167 1.6 9.7 0.00 0.00 0.00 92 1006.0
20260509120025 11 183 1.6 6.4 0.00 0.00 0.00 92 1006.2
20260509114525 10 182 0.0 4.8 0.00 0.00 0.00 92 1006.4
20260509113015 10 182 0.0 3.2 0.00 0.00 0.00 92 1006.2
20260509111519 10 182 0.0 4.8 0.00 0.00 0.00 92 1006.1
20260509110022 10 326 0.0 3.2 0.00 0.00 0.00 91 1006.1
20260509104533 10 178 1.6 11.3 0.00 0.00 0.00 91 1005.9
20260509103011 10 171 4.8 11.3 0.00 0.00 0.00 90 1005.8
20260509101519 10 184 3.2 12.9 0.00 0.05 0.00 90 1005.9
20260509100030 10 188 3.2 8.0 0.00 0.08 0.00 90 1005.9
20260509094530 10 185 3.2 11.3 0.00 0.10 0.00 90 1005.9
20260509093029 10 183 3.2 9.7 0.00 0.10 0.00 89 1006.0
20260509091517 10 184 3.2 6.4 0.00 0.10 0.00 89 1006.2
20260509090020 10 181 1.6 6.4 0.00 0.10 0.00 88 1006.5
20260509084529 9 207 1.6 8.0 0.00 0.10 0.00 86 1006.8
20260509083024 9 273 0.0 3.2 0.00 0.13 0.00 83 1007.0
20260509081540 9 273 0.0 4.8 0.00 0.13 0.00 81 1006.9
20260509080015 9 178 0.0 3.2 0.00 0.13 0.00 79 1006.8
20260509074504 9 185 0.0 4.8 0.00 0.13 0.00 75 1006.7
20260509073006 10 176 0.0 6.4 0.00 0.13 0.00 72 1006.7
20260509071514 10 189 1.6 6.4 0.00 0.13 0.00 69 1006.7
20260509070014 10 209 1.6 6.4 0.00 0.13 0.00 64 1006.8
20260509064520 10 184 3.2 6.4 0.00 0.13 0.00 63 1007.0
20260509063002 10 173 0.0 3.2 0.00 0.13 0.00 63 1007.1
20260509061507 10 185 1.6 8.0 0.00 0.13 0.00 63 1007.4